Wind_Speed
27 28 29 30 26 24 22 21 18 13 13 13 13 15 15 14 12 8 11 7 15 12 12 12 17 21 20 18 17 14 11 10 9 8 4 2 14 7 3 10 11 4 21 29 38
29 29 30 31 28 26 22 20 15 13 11 12 14 15 14 11 11 19 14 15 10 14 15 20 17 19 15 19 15 14 13 10 8 10 2 16 4 11 6 9 14 14 24 39 38
29 30 31 31 30 28 24 18 15 14 13 12 14 14 10 4 10 4 8 17 15 17 21 21 19 19 17 16 18 17 14 7 8 17 18 16 14 17 5 17 19 22 25 30 32
29 30 31 32 31 28 24 18 17 18 15 15 12 10 6 5 2 8 1 6 16 17 20 24 18 17 17 19 17 18 18 10 14 20 16 11 9 7 22 9 3 24 25 29 28
30 31 31 32 31 27 21 19 19 17 14 10 7 5 2 8 5 5 2 5 12 17 23 20 20 18 17 17 19 17 16 15 15 19 15 13 9 3 2 15 11 24 25 27 26
29 31 32 32 31 23 20 21 18 14 11 7 5 4 6 12 4 1 3 10 13 22 21 24 15 16 15 19 16 16 15 17 15 18 12 17 12 8 21 21 19 23 24 24 26
29 30 31 30 29 21 21 21 14 10 7 7 6 5 11 12 4 5 6 10 16 23 18 24 21 16 16 13 14 15 18 12 16 15 11 10 13 12 20 23 25 23 23 23 20
30 30 30 29 26 21 21 20 9 8 9 2 4 6 8 4 5 6 8 11 14 19 24 19 19 14 16 13 17 13 17 16 16 18 14 9 14 15 16 14 23 24 24 22 21
30 30 29 29 24 21 20 20 11 8 7 4 4 9 5 4 8 2 7 10 12 17 21 18 13 14 13 17 14 13 14 19 19 20 18 15 8 9 18 10 22 21 23 21 19
30 30 29 27 22 19 21 21 14 12 9 9 16 10 7 2 4 2 3 7 12 15 11 12 9 13 14 14 15 16 17 18 17 18 19 18 12 13 20 17 11 22 21 22 21
30 30 29 28 18 16 24 8 4 6 12 12 3 6 3 6 5 7 7 10 13 11 14 17 11 16 19 20 20 20 20 17 17 18 19 16 16 15 9 3 11 15 20 25 23
29 29 29 26 18 16 19 7 8 7 10 8 4 5 3 5 5 5 8 10 11 14 16 14 19 18 18 20 21 21 21 19 17 18 17 18 19 20 12 10 28 29 21 21 25
29 29 30 21 15 12 11 7 9 7 7 12 10 3 2 7 3 8 8 11 12 15 17 19 15 21 21 18 19 18 19 18 17 17 16 16 15 15 9 3 13 25 24 22 23
29 31 25 17 9 8 1 8 9 2 5 13 9 4 8 5 6 3 4 10 11 13 17 19 21 18 20 21 18 19 16 19 18 16 13 17 15 26 20 14 17 10 10 24 22
29 29 16 8 13 7 9 10 7 5 5 9 10 5 0 10 4 8 1 7 12 13 11 17 21 21 19 17 21 18 16 14 16 18 18 22 14 9 26 25 13 15 23 21 25
30 20 11 5 8 8 11 11 6 6 2 5 3 6 10 8 6 3 5 7 10 10 16 16 17 20 22 18 14 16 17 18 17 15 16 20 18 17 17 19 14 22 26 21 26
28 12 7 9 9 14 12 9 6 7 9 8 4 4 4 8 3 4 8 11 9 9 13 16 19 20 17 19 22 18 15 12 14 14 16 19 19 14 15 28 26 25 25 25 23
25 9 11 10 11 12 9 7 7 8 16 6 3 2 5 8 5 5 7 10 11 11 13 14 11 21 17 20 20 18 19 14 18 13 16 20 19 18 23 21 29 31 24 28 26
21 9 12 6 8 6 6 9 6 12 14 6 10 10 12 7 3 5 7 13 6 14 9 10 14 18 13 24 20 20 21 21 23 20 17 17 17 23 21 18 8 9 6 10 16
15 14 5 9 4 9 7 9 7 10 9 8 7 5 12 4 3 6 6 7 5 9 10 10 17 19 15 16 25 21 18 20 15 21 22 19 19 15 19 19 19 16 7 5 16
6 6 7 9 6 7 8 8 8 10 9 7 8 7 7 9 9 8 7 7 7 7 10 13 12 20 19 11 15 13 19 21 14 17 16 15 15 15 23 21 18 21 21 21 24
10 2 10 5 7 3 11 7 3 7 5 5 4 5 7 9 7 6 8 8 12 13 8 16 8 14 18 20 14 14 18 19 12 15 14 16 16 17 13 22 19 13 21 22 19
5 4 8 9 5 8 5 7 9 10 8 7 5 7 8 5 5 4 4 15 14 9 11 12 7 11 15 16 19 15 17 20 20 19 20 15 18 6 10 6 17 16 11 5 23
5 1 4 7 8 7 2 4 6 5 5 3 5 3 6 4 5 3 5 4 3 5 8 8 12 17 16 14 18 15 19 22 20 16 18 19 19 2 6 22 12 15 15 13 12
4 6 4 8 8 9 8 4 3 6 5 7 6 9 6 4 7 2 3 5 5 3 3 8 15 18 22 22 23 21 21 18 18 22 20 18 18 14 20 23 16 10 11 12 10
6 5 5 6 5 1 3 7 6 3 4 5 2 1 5 5 6 10 11 11 11 8 7 3 13 13 20 22 19 24 23 21 19 15 19 19 18 18 3 12 18 16 16 15 14
5 7 2 2 9 6 7 9 3 5 3 3 3 7 10 9 10 12 13 14 15 14 12 9 8 8 12 17 20 20 23 19 19 18 16 18 16 8 10 7 11 17 9 15 17
Wind_Direction
2 358 355 352 348 344 340 338 332 321 307 303 302 311 312 306 299 261 242 213 227 233 207 206 214 216 208 236 224 221 253 229 309 95 200 270 127 79 286 170 123 152 143 147 155
359 356 353 352 348 342 340 340 338 329 315 302 303 314 313 303 278 257 240 242 198 213 205 209 205 212 214 228 224 240 264 348 41 15 40 265 233 136 98 256 122 111 129 145 159
356 353 351 350 347 343 338 338 334 323 313 304 304 310 310 313 278 114 217 215 230 223 208 215 210 209 222 224 228 231 249 125 56 311 265 239 170 174 192 204 150 131 153 152 156
353 351 350 349 345 342 337 335 328 320 306 295 297 300 300 260 334 120 279 232 225 209 216 245 219 211 224 229 234 233 252 161 174 219 238 232 313 12 167 145 116 135 156 157 157
349 349 348 347 342 340 339 334 327 325 320 296 285 278 279 226 246 120 17 196 193 198 217 231 216 216 225 235 235 241 249 265 152 285 194 84 28 219 70 143 125 138 155 164 160
349 346 346 346 341 341 340 332 325 326 318 307 262 245 248 252 32 315 226 178 194 197 217 235 217 221 237 248 249 246 236 251 181 206 209 140 173 196 235 156 149 146 164 170 170
346 344 342 343 341 336 338 332 326 326 319 302 260 218 261 266 300 272 225 202 199 199 215 231 226 236 238 267 278 274 267 259 239 264 225 166 195 146 141 162 140 152 167 170 178
345 343 340 339 338 330 328 333 324 314 318 316 205 216 283 358 274 236 212 185 195 200 222 225 232 248 256 258 267 275 250 258 245 225 242 177 210 157 136 180 145 158 168 172 180
342 341 338 336 333 325 320 325 310 299 310 240 233 226 240 197 223 158 211 196 182 192 225 246 221 243 249 250 259 241 247 236 252 210 216 218 202 112 18 318 153 163 171 166 176
340 339 336 334 328 321 316 318 285 286 287 248 265 261 237 331 27 256 221 240 187 197 205 234 218 236 234 232 231 241 227 244 234 241 198 223 134 121 121 287 297 163 177 164 177
339 337 334 331 322 313 318 317 219 202 237 284 353 293 92 109 176 204 187 217 203 197 206 208 210 219 228 231 242 266 278 243 237 218 235 203 134 147 131 221 286 257 178 171 178
337 334 332 327 313 291 298 304 19 330 298 194 250 241 277 312 195 156 198 194 194 213 214 196 227 233 233 235 235 254 267 276 278 245 229 205 157 160 150 184 215 243 172 187 173
336 334 330 323 308 283 261 5 323 299 260 211 219 227 174 249 297 103 212 219 201 223 222 231 230 218 241 239 244 236 252 263 274 288 234 236 151 164 212 270 237 234 170 184 174
338 334 330 319 298 303 291 341 329 302 266 149 188 198 212 242 200 110 276 279 242 245 231 237 241 260 215 241 242 247 240 259 273 272 263 222 250 178 163 208 210 198 285 176 186
339 334 326 299 306 310 350 331 323 228 245 171 119 103 118 258 121 157 357 258 259 265 231 247 238 241 245 231 242 252 255 252 249 264 272 261 228 239 168 182 171 149 252 203 180
339 332 312 275 253 299 327 319 261 234 189 120 113 160 201 202 206 105 218 211 302 282 280 276 272 243 244 244 251 257 252 266 262 239 250 252 258 223 170 188 194 188 209 225 173
338 316 276 293 317 329 319 281 230 247 158 146 149 229 275 157 204 233 261 219 238 219 233 234 243 261 246 244 241 235 238 236 237 237 238 236 249 254 215 184 183 197 214 184 176
334 292 262 254 300 317 293 252 254 16 73 62 326 302 263 20 263 206 264 260 266 273 284 290 270 212 240 239 238 221 229 229 228 233 238 228 239 230 260 269 186 193 189 180 183
331 287 251 254 304 292 254 242 21 7 9 17 318 257 267 157 259 311 272 282 4 14 349 321 265 293 286 224 224 240 220 245 256 250 246 241 217 242 232 233 162 106 145 169 303
326 286 221 332 299 252 249 265 84 30 343 334 302 332 306 114 122 231 270 55 356 54 335 306 309 299 280 291 227 229 249 220 243 249 260 259 253 205 218 232 197 173 123 101 267
273 231 48 329 257 244 255 66 75 61 352 338 347 321 308 327 341 312 316 45 13 312 351 319 293 287 300 271 260 226 240 253 264 235 254 256 263 257 195 206 224 164 159 158 220
286 330 1 316 252 296 38 22 311 23 31 12 292 332 306 323 308 293 295 40 43 356 325 315 305 289 273 275 277 280 283 245 246 255 249 256 258 23 9 193 205 217 174 169 145
286 64 14 288 318 81 84 71 33 11 30 8 13 9 5 315 312 255 307 62 42 356 28 348 311 297 261 274 267 253 252 257 264 245 263 241 251 288 344 288 197 194 243 200 184
284 355 73 46 17 42 75 35 100 61 74 33 343 295 335 272 197 328 297 330 56 311 59 322 280 275 283 290 329 308 251 257 258 247 242 249 264 69 19 15 80 64 57 46 29
341 49 333 9 40 40 33 349 43 39 41 9 55 23 22 316 344 306 338 294 299 79 286 290 271 270 274 289 310 289 287 286 269 261 266 271 249 28 10 355 16 24 68 66 40
360 357 54 24 319 36 86 57 26 31 312 57 58 323 309 294 293 308 312 294 289 292 233 312 278 278 286 277 273 279 268 261 270 277 281 280 295 98 313 319 332 14 26 39 39
31 43 39 267 30 23 34 40 27 308 61 317 327 297 298 9 339 307 299 297 294 292 274 239 197 287 284 282 289 264 253 259 263 254 254 262 273 272 38 264 6 356 5 15 16
Height
807 803 799 794 790 786 783 779 776 773 771 769 768 766 764 762 761 762 756 749 749 751 752 753 753 750 747 741 737 735 763 772 766 769 766 733 732 739 737 747 744 743 750 762 776
807 802 797 793 789 785 781 777 774 772 769 767 766 765 762 761 761 754 747 747 747 749 752 748 747 745 744 740 737 745 753 759 762 765 770 746 732 741 749 746 739 741 749 763 774
806 801 796 791 787 783 779 775 773 770 768 766 764 763 761 761 757 734 740 742 745 747 749 745 741 740 743 734 736 736 751 755 767 764 766 748 731 725 745 747 736 750 756 762 770
806 801 796 790 785 780 776 773 770 767 766 764 763 761 760 763 747 737 739 740 742 745 749 743 734 740 743 742 727 740 728 738 750 759 767 747 733 744 727 734 735 741 751 760 769
805 800 795 789 783 778 774 771 768 765 762 761 761 761 761 755 738 736 737 738 741 744 744 739 734 735 743 731 726 730 726 722 733 735 730 733 747 756 744 733 734 745 754 759 767
804 799 793 788 782 777 773 770 766 763 761 760 759 760 762 751 735 736 736 737 739 742 741 734 729 725 730 727 725 716 716 717 721 726 714 737 743 759 754 733 735 750 759 759 764
803 797 792 787 782 777 772 768 765 762 761 759 759 759 754 739 735 735 734 734 737 738 737 731 725 725 725 728 717 716 727 719 717 712 713 712 737 743 736 723 735 752 759 761 763
801 796 790 784 779 775 771 766 764 762 760 758 758 761 742 735 734 733 731 731 733 736 735 728 726 724 725 719 720 729 728 743 715 713 709 716 744 728 723 734 737 749 756 760 764
799 794 788 782 777 773 769 766 763 761 760 758 759 755 734 733 731 730 729 728 730 733 732 727 727 730 733 740 743 730 748 738 726 700 712 719 738 743 746 743 735 745 752 758 764
797 792 786 781 775 771 766 763 760 760 758 760 755 751 730 728 729 730 730 728 728 729 731 731 732 743 740 742 761 743 737 728 724 708 704 718 739 748 747 755 762 738 746 757 763
795 789 784 778 774 770 764 761 759 760 755 738 733 730 728 730 731 730 730 729 726 731 745 736 749 753 741 734 727 723 719 717 705 690 701 713 739 745 752 760 765 757 743 751 759
794 788 782 776 772 767 766 757 757 758 753 733 732 730 731 727 727 726 729 731 734 744 735 738 749 733 724 721 726 725 728 719 698 686 694 701 731 739 742 747 757 761 736 742 750
792 786 780 774 770 767 761 760 758 756 751 730 728 725 728 728 724 727 727 726 732 739 735 741 727 721 726 725 728 726 730 722 718 696 686 695 735 754 741 734 748 737 719 730 740
790 784 777 772 772 760 756 759 756 755 756 735 734 729 729 725 732 727 726 726 727 736 730 729 719 717 725 729 723 737 712 717 718 720 732 694 738 742 745 754 733 733 738 722 733
788 781 776 774 769 757 760 758 757 754 762 731 727 728 724 729 727 729 728 729 737 728 729 732 724 725 725 723 718 728 709 714 722 727 722 711 725 707 722 733 739 739 741 720 722
785 779 776 773 769 762 760 758 756 764 758 739 727 731 733 728 727 725 729 728 722 731 724 723 705 710 714 710 713 711 721 721 719 727 748 723 718 714 728 728 733 716 726 718 712
783 777 775 773 763 762 760 755 763 759 719 742 735 732 731 729 734 735 735 735 742 750 743 727 724 710 705 723 714 720 732 759 762 754 752 716 723 707 679 689 699 706 705 699 705
779 776 773 771 766 763 760 758 766 725 734 735 738 739 745 735 738 734 741 744 729 733 742 743 742 717 708 714 723 723 729 750 772 756 739 710 725 709 672 665 671 677 673 685 694
776 774 770 766 764 764 760 758 755 751 748 751 746 748 743 738 750 743 746 739 730 739 756 752 739 703 702 701 709 721 731 714 731 716 727 708 695 684 669 670 678 688 693 695 716
779 768 761 763 762 760 758 755 755 759 761 753 761 746 747 739 753 745 746 738 741 747 750 755 764 724 712 698 698 713 703 734 725 754 750 716 699 697 684 676 671 678 698 704 716
778 760 761 761 760 754 755 761 761 763 764 766 759 759 756 755 755 758 755 749 749 753 756 758 761 748 727 727 724 721 722 715 715 721 742 741 709 653 662 662 666 674 693 702 723
768 758 761 760 760 747 762 766 780 768 766 766 767 770 770 765 769 767 768 763 767 768 776 766 768 768 747 718 708 712 720 717 737 743 717 715 701 652 649 646 651 659 671 672 691
768 760 760 756 760 759 769 775 776 773 778 775 773 776 773 778 783 773 770 768 776 782 788 786 777 776 764 743 720 724 719 718 717 716 730 727 708 657 655 647 645 654 657 660 667
776 763 759 758 758 764 772 777 778 784 782 783 785 780 779 777 773 783 779 773 777 784 792 792 792 791 781 755 754 746 726 720 719 727 721 716 702 683 675 691 665 668 670 672 672
772 780 781 783 777 778 778 780 782 788 786 787 793 790 795 789 783 783 780 780 778 781 789 792 798 789 776 768 767 755 742 730 728 723 728 717 703 732 726 716 701 680 677 679 683
785 782 780 786 783 777 795 792 795 796 795 799 798 799 798 798 794 797 792 790 788 781 786 791 800 794 791 774 773 763 751 737 733 729 726 719 717 729 727 722 713 706 694 693 694
796 794 788 797 786 783 802 804 807 802 801 801 802 802 792 791 793 792 789 788 786 786 787 790 816 803 801 780 772 771 753 741 737 728 731 740 723 712 727 717 735 725 720 714 711